Terminal Aerodrome Forecast
Issued by NWS

Home | Current Version | Previous Version | Graphics & Text | Print | Product List | Glossary On
Versions: 1 2 3 4 5 6 7 8 9 10 11 12 13 14 15 16 17 18
000
FTUS43 KBIS 132100 AAB
TAFMOT
TAF AMD
KMOT 132147Z 1322/1418 29016G24KT P6SM VCSH SCT040 BKN060
     FM140100 29009KT P6SM BKN050
     FM141000 29007KT P6SM SCT150=

USA.gov is the U.S. government's official web portal to all federal, state and local government web resources and services.